Lapse_Rate
5.5 5.4 5.4 5.4 5.5 5.5 5.6 5.6 5.5 5.6 5.7 5.6 5.6 5.2 5.1 5.4 5.8 5.8 7.0 7.0 6.8 6.7 6.9 6.6 7.0 6.3 6.5 6.7 6.7 6.7 6.6 6.8 6.9 6.6 6.2 6.2 6.3 6.5 6.6 6.6 6.7 6.9 6.1 6.1 6.0 6.2 6.1 7.2 6.0 5.8 6.7 7.2 6.0 6.9
5.6 5.6 5.5 5.5 5.7 5.7 5.7 5.7 5.6 5.7 5.8 5.7 5.7 5.6 5.7 5.9 6.2 6.5 6.8 7.2 7.3 7.3 6.9 7.3 7.1 6.9 6.8 6.9 6.8 6.6 6.5 6.6 7.0 6.9 6.7 6.6 6.7 7.0 6.7 6.8 7.0 6.9 6.8 6.7 6.9 6.7 7.0 7.2 6.8 6.6 6.7 5.8 5.5 5.7
5.6 5.6 5.6 5.7 5.8 5.8 5.7 5.6 5.7 5.9 5.9 5.9 5.8 5.7 5.8 6.1 6.7 6.7 6.7 7.1 7.3 7.4 7.2 7.0 7.5 7.1 7.0 7.2 7.0 6.7 6.6 6.6 6.7 6.7 6.7 6.6 6.7 6.9 6.9 6.8 6.9 6.8 7.2 7.7 7.9 7.0 6.6 6.8 7.2 7.4 7.3 6.3 6.1 6.2
5.8 5.7 5.8 5.8 5.9 5.8 5.7 5.7 5.8 6.0 6.0 6.0 5.8 5.8 5.9 6.4 6.8 6.7 6.8 7.3 7.6 7.6 7.3 7.5 7.3 7.1 7.1 7.3 7.2 6.9 6.8 6.8 6.7 6.7 6.7 6.6 6.5 6.8 6.8 7.1 7.1 7.3 7.8 7.7 7.8 7.5 7.7 7.2 7.8 7.6 7.4 7.1 6.6 6.4
5.8 5.8 5.8 5.9 5.9 5.8 5.7 5.7 5.9 6.2 6.1 6.1 5.8 5.8 6.1 6.5 6.8 6.8 7.1 7.3 7.5 7.4 7.1 7.5 7.7 7.7 7.4 7.4 7.2 7.0 6.9 6.8 6.8 6.9 6.8 6.7 6.7 6.8 6.9 6.9 6.9 7.3 7.5 7.4 7.4 8.1 7.6 7.6 7.6 7.5 6.9 6.7 6.7 6.6
6.0 5.9 5.9 6.0 6.0 5.9 5.7 5.9 6.1 6.3 6.2 6.1 5.9 5.9 6.3 6.7 6.9 7.2 7.4 7.4 7.4 7.2 7.2 7.4 7.7 7.9 7.9 7.5 7.3 7.3 7.1 7.0 6.9 6.8 6.7 6.8 6.9 7.0 6.8 6.8 7.4 7.3 7.4 7.5 7.4 7.8 7.5 7.3 7.2 7.0 6.7 7.0 6.6 6.8
6.1 6.0 6.0 6.1 6.0 5.9 5.9 6.1 6.1 6.3 6.2 6.1 5.9 6.1 6.4 6.8 6.9 7.2 7.4 7.5 7.3 7.2 7.1 7.1 7.6 8.1 8.1 7.8 7.5 7.4 7.2 7.0 7.0 6.8 6.7 6.6 6.9 6.8 6.3 6.0 7.3 7.8 7.7 7.8 7.6 7.4 6.8 6.7 6.6 7.1 6.8 6.6 6.7 6.5
6.1 6.0 6.1 6.2 6.1 6.0 6.0 6.2 6.2 6.4 6.3 6.1 6.0 6.2 6.5 6.9 7.0 7.1 7.3 7.3 7.4 7.2 7.1 7.1 7.7 8.0 8.0 7.9 7.5 7.3 7.2 7.1 7.0 6.8 6.8 7.2 7.2 6.8 5.9 7.9 8.3 8.1 7.7 7.0 6.9 6.7 6.1 6.0 6.2 6.1 6.5 6.5 6.8 6.8
6.2 6.1 6.1 6.2 6.1 6.0 6.1 6.3 6.3 6.4 6.3 6.1 6.1 6.3 6.7 7.0 7.0 6.9 7.0 7.1 7.3 7.2 7.3 7.2 7.5 7.5 7.7 7.6 7.4 7.3 7.1 7.0 6.7 6.8 7.3 6.9 6.6 6.5 8.2 7.6 7.0 6.8 6.6 6.6 6.5 6.3 6.1 5.7 6.2 7.1 6.9 7.2 6.8 6.8
6.3 6.2 6.2 6.2 6.2 6.1 6.1 6.3 6.3 6.4 6.3 6.2 6.2 6.4 6.5 7.0 7.0 6.9 7.0 7.0 7.0 7.2 7.0 7.2 7.3 7.4 7.3 7.2 7.1 7.1 6.8 6.8 6.4 6.8 6.6 6.3 7.1 7.9 7.2 6.7 6.5 6.3 6.4 6.5 6.5 6.9 6.7 6.3 6.2 7.1 6.8 6.6 6.7 6.0
6.4 6.3 6.2 6.2 6.2 6.1 6.2 6.3 6.4 6.4 6.2 6.3 6.2 6.3 6.5 6.9 6.9 6.9 6.9 6.9 6.9 7.0 7.1 7.2 7.2 7.2 7.1 7.0 6.8 6.6 6.6 6.4 6.3 6.8 6.6 6.5 7.0 7.1 6.8 6.7 6.4 6.1 6.2 6.6 7.1 7.2 7.2 6.6 7.1 7.1 6.7 6.4 6.2 5.8
6.6 6.3 6.2 6.2 6.1 6.1 6.2 6.3 6.4 6.4 6.3 6.3 6.2 6.3 6.6 6.9 7.0 6.9 7.0 7.0 6.9 6.9 7.0 7.0 7.0 6.9 6.9 6.6 6.5 6.5 6.6 6.6 6.6 6.5 6.5 6.5 7.0 6.6 6.4 6.3 6.5 6.4 6.5 6.8 7.3 7.5 7.7 7.5 7.3 6.6 6.9 6.0 6.1 5.8
6.8 6.5 6.2 6.1 6.1 6.1 6.2 6.3 6.3 6.3 6.2 6.3 6.2 6.3 6.6 6.7 6.7 7.0 7.3 7.3 7.0 7.0 7.1 7.0 6.8 6.6 6.6 6.5 6.4 6.6 6.6 6.6 6.6 6.6 6.8 7.1 6.7 6.4 6.2 6.5 6.8 6.5 6.6 7.3 7.6 8.0 8.1 8.2 7.5 6.7 6.4 6.4 6.2 5.6
7.0 6.7 6.3 6.0 6.1 6.1 6.3 6.3 6.3 6.3 6.1 6.0 6.2 6.0 6.5 6.7 7.0 7.3 7.4 7.5 7.4 7.2 7.1 7.1 7.1 7.0 6.9 6.8 6.7 6.6 6.7 6.7 6.7 6.8 7.1 7.0 6.8 6.4 6.2 6.3 6.5 6.4 6.5 7.1 7.3 7.5 7.7 7.7 7.1 6.8 6.8 6.5 6.2 6.0
7.0 6.8 6.4 6.0 6.1 6.1 6.2 6.3 6.2 6.2 6.0 6.0 6.1 6.0 6.3 6.7 7.1 7.3 7.4 7.4 7.3 7.3 7.2 7.1 7.1 7.2 7.2 7.2 7.2 7.1 7.0 7.1 7.1 7.3 7.1 7.0 6.6 6.5 6.1 6.2 6.3 6.4 6.3 6.6 6.9 7.3 7.6 7.3 7.3 6.7 6.6 6.3 6.0 5.5
7.0 7.0 6.4 6.1 6.1 6.0 6.2 6.3 6.2 6.0 5.9 5.9 6.2 6.3 6.4 6.6 6.9 7.3 7.2 7.3 7.4 7.4 7.4 7.3 7.4 7.3 7.3 7.3 7.4 7.4 7.4 7.3 7.0 7.1 7.0 6.9 6.5 6.4 6.1 6.2 6.0 6.2 6.1 5.8 6.6 6.8 6.8 6.5 6.7 6.4 6.3 6.1 5.9 5.3
6.9 6.9 6.5 6.1 6.1 6.1 6.1 6.2 6.0 5.6 5.6 6.0 6.4 6.3 6.4 6.6 6.8 6.9 7.3 7.4 7.5 7.6 7.6 7.5 7.5 7.8 7.6 7.5 7.6 7.6 7.4 7.3 7.3 7.1 7.2 7.0 6.8 6.5 6.1 6.2 6.2 6.3 6.2 6.0 6.0 6.1 6.0 5.8 5.6 5.7 5.5 5.3 5.5 5.4
7.0 6.7 6.4 5.9 6.0 6.2 6.1 6.1 5.8 5.8 5.9 6.2 6.3 6.3 6.2 6.3 6.5 6.5 6.9 7.2 7.5 7.7 7.8 7.7 7.8 7.8 7.8 7.9 7.9 7.7 7.6 7.6 7.2 7.3 7.4 7.3 7.0 6.8 6.3 6.4 6.5 6.3 6.4 6.1 5.9 5.8 5.8 5.5 5.5 5.4 5.3 5.1 4.9 4.9
6.7 6.6 6.2 5.8 6.1 6.2 5.7 5.8 5.8 5.9 6.2 6.3 6.3 6.1 6.0 6.1 6.2 6.3 6.3 6.6 7.0 7.3 7.6 7.7 7.7 7.8 7.9 8.1 7.9 7.8 7.7 7.8 7.7 7.5 7.5 7.4 7.2 7.2 7.2 6.9 6.8 6.6 6.7 6.4 6.3 6.2 6.3 6.0 6.1 5.9 5.9 5.6 5.1 4.7
6.6 5.9 5.8 6.0 6.2 5.7 5.6 5.8 5.9 5.8 6.1 6.3 6.3 5.9 5.7 5.8 5.9 5.9 6.0 6.1 6.4 6.5 7.0 7.4 7.8 7.9 7.9 7.8 7.6 7.7 7.8 7.8 7.7 7.5 7.3 7.3 7.2 7.2 7.5 7.3 7.2 7.2 6.8 6.7 6.6 6.4 6.3 6.4 6.5 5.9 5.6 5.7 5.5 5.0
5.9 5.9 5.9 6.1 5.7 5.5 5.6 5.8 5.9 6.0 6.0 6.0 6.1 5.9 5.7 5.7 5.7 5.7 5.8 5.9 6.0 6.1 6.3 6.6 6.9 7.3 7.5 7.5 7.5 7.4 7.5 7.7 7.6 7.6 7.4 7.2 7.2 7.1 7.2 7.4 7.3 7.3 7.1 6.9 7.0 7.1 6.8 6.7 6.2 6.2 6.1 6.0 5.9 5.6
6.0 5.7 5.9 5.7 5.6 5.3 5.6 5.9 6.0 6.1 6.1 6.0 5.9 5.7 5.7 5.7 5.6 5.6 5.6 5.7 5.8 5.9 6.0 6.1 6.3 6.5 6.8 7.0 7.2 7.4 7.5 7.6 7.6 7.5 7.4 7.3 7.3 7.4 7.3 7.4 7.3 7.4 7.4 7.5 7.3 7.3 7.4 7.4 6.9 6.6 6.5 6.5 6.4 6.3
6.1 5.8 5.8 5.5 5.5 5.5 5.8 6.0 5.9 5.9 6.1 5.8 5.8 5.6 5.6 5.7 5.6 5.6 5.5 5.6 5.6 5.7 5.8 5.8 5.8 6.0 6.2 6.4 6.7 7.1 7.3 7.4 7.5 7.5 7.4 7.5 7.6 7.5 7.5 7.4 7.4 7.4 7.4 7.3 7.4 7.4 7.4 7.3 7.4 7.4 7.2 7.0 7.1 7.0
6.1 5.9 5.7 5.6 5.5 5.6 5.7 5.8 5.7 5.8 5.9 5.9 5.8 5.6 5.7 5.7 5.7 5.5 5.4 5.5 5.6 5.5 5.5 5.5 5.5 5.5 5.7 5.8 6.1 6.5 6.9 7.1 7.3 7.4 7.5 7.5 7.6 7.7 7.6 7.5 7.4 7.4 7.5 7.4 7.3 7.3 7.3 7.3 7.4 7.4 7.5 7.3 7.2 7.2
6.0 5.9 5.6 5.5 5.6 5.5 5.8 5.7 5.7 5.8 5.9 6.0 5.9 5.8 5.8 5.7 5.5 5.3 5.3 5.3 5.2 5.2 5.2 5.2 5.1 5.2 5.3 5.4 5.6 5.9 6.2 6.7 7.0 7.3 7.4 7.4 7.4 7.5 7.7 7.6 7.6 7.5 7.4 7.4 7.3 7.3 7.3 7.4 7.4 7.4 7.3 7.3 7.2 7.2
6.0 5.9 5.7 5.5 5.6 5.8 5.8 5.9 5.8 5.9 6.0 6.0 5.9 5.8 5.6 5.4 5.2 5.2 5.1 5.1 4.9 4.8 4.9 4.9 4.9 5.0 5.1 5.2 5.4 5.8 6.1 6.4 6.8 7.2 7.4 7.2 7.2 7.3 7.4 7.4 7.6 7.5 7.5 7.4 7.4 7.4 7.5 7.6 7.6 7.6 7.5 7.5 7.5 7.5
6.0 5.6 5.6 5.6 5.6 5.7 5.8 5.9 6.0 6.0 6.0 6.0 6.0 5.9 5.7 5.7 5.3 5.2 5.2 5.0 4.9 4.9 4.9 5.0 5.1 5.2 5.3 5.4 5.6 5.8 6.1 6.4 6.7 6.9 7.2 7.1 7.2 7.2 7.3 7.4 7.5 7.5 7.4 7.5 7.5 7.6 7.6 7.6 7.6 7.7 7.7 7.7 7.6 7.6
5.9 5.8 5.8 5.7 5.7 5.7 5.6 5.6 5.8 5.9 6.0 6.1 6.0 6.0 5.8 5.7 5.6 5.4 5.2 5.1 5.1 5.1 5.1 5.2 5.3 5.4 5.7 5.9 5.9 5.9 6.1 6.1 6.1 6.5 6.8 7.1 7.2 7.2 7.2 7.3 7.4 7.4 7.4 7.3 7.4 7.5 7.6 7.6 7.6 7.5 7.5 7.6 7.5 7.5
6.0 6.0 5.8 5.7 5.6 5.6 5.5 5.4 5.6 5.9 6.1 6.1 6.0 5.9 5.9 5.8 5.6 5.4 5.3 5.2 5.2 5.2 5.2 5.3 5.3 5.5 5.8 6.1 6.3 6.3 6.2 6.1 6.0 5.9 6.0 6.3 6.8 6.9 7.1 7.0 6.9 7.2 7.3 7.3 7.3 7.4 7.5 7.5 7.4 7.4 7.4 7.5 7.5 7.5
6.0 5.8 5.7 5.7 5.6 5.4 5.6 5.7 6.0 6.0 5.9 5.9 5.8 5.8 5.7 5.6 5.4 5.3 5.2 5.2 5.2 5.1 5.3 5.5 5.7 5.8 6.0 6.2 6.3 6.5 6.4 6.3 6.2 6.0 5.9 6.1 6.3 6.4 6.4 6.7 6.9 7.1 7.2 7.4 7.6 7.5 7.4 7.4 7.4 7.5 7.5 7.5 7.4 7.4
6.0 5.8 5.7 5.6 5.5 5.4 5.5 5.9 5.8 5.8 5.7 5.7 5.7 5.6 5.5 5.3 5.3 5.2 5.2 5.2 5.1 5.2 5.4 5.6 5.9 6.0 6.1 6.1 6.2 6.3 6.3 6.2 6.2 6.1 6.2 6.2 6.3 6.3 6.3 6.3 6.4 6.5 6.8 7.1 7.2 7.4 7.4 7.3 7.2 7.2 7.3 7.4 7.5 7.4
5.8 5.7 5.5 5.5 5.4 5.5 5.6 5.8 5.7 5.6 5.6 5.6 5.6 5.4 5.2 5.2 5.2 5.1 5.1 5.1 5.2 5.2 5.5 5.7 5.9 6.0 6.0 6.0 6.1 6.1 6.1 6.0 6.0 6.0 6.0 6.0 6.0 6.1 6.3 6.2 6.1 6.0 6.0 6.3 6.5 6.8 7.1 7.3 7.4 7.2 7.0 6.8 7.1 7.1
5.5 5.3 5.3 5.3 5.5 5.6 5.7 5.5 5.6 5.6 5.6 5.6 5.4 5.3 5.2 5.1 5.0 5.0 5.2 5.2 5.2 5.3 5.5 5.8 6.0 5.9 5.9 5.9 5.9 5.9 5.9 5.9 5.8 5.8 5.8 5.8 5.9 5.9 5.9 5.9 5.9 6.0 5.9 5.9 5.8 5.9 6.2 6.4 6.6 6.6 6.6 6.6 6.6 6.7
Wind_Speed
19 21 23 24 22 22 18 19 20 22 21 22 23 22 20 21 21 12 9 9 7 10 19 15 15 14 8 9 10 4 3 2 5 7 7 6 7 9 8 12 12 11 12 9 13 12 16 18 10 15 19 32 20 21
18 21 23 21 19 21 18 18 20 21 21 21 23 23 22 23 22 20 12 9 10 12 6 4 18 20 18 21 13 5 4 5 4 4 4 3 3 5 12 9 10 12 10 7 12 9 15 13 12 13 21 20 8 10
20 22 23 20 19 20 17 18 21 18 20 24 24 23 24 24 24 19 10 10 6 3 3 3 10 13 9 10 7 5 3 4 3 1 3 2 4 6 6 10 8 11 11 10 9 18 19 22 12 11 11 16 14 16
20 22 22 19 19 19 15 19 18 19 22 23 24 23 22 25 26 21 10 8 2 2 2 5 1 5 4 5 7 9 3 3 2 2 2 3 3 6 5 9 12 11 9 15 15 20 21 23 21 16 16 19 21 18
21 19 21 18 18 19 17 17 17 21 22 23 24 23 23 25 24 17 5 4 3 2 2 3 3 4 3 4 6 5 7 3 2 3 3 4 2 3 2 2 6 8 12 9 14 16 13 21 15 13 15 18 20 20
20 19 20 18 18 20 17 16 19 22 20 22 23 22 23 23 23 2 2 2 4 2 1 3 2 2 1 2 0 1 2 2 2 2 1 2 2 3 4 7 13 11 11 18 22 23 22 22 15 17 18 22 20 18
19 17 20 18 18 20 15 17 20 20 21 22 21 21 22 22 4 2 2 2 5 1 1 3 3 1 2 2 1 1 2 0 0 1 3 2 3 4 3 11 14 12 17 22 22 20 27 25 18 18 20 21 19 19
18 19 19 18 17 17 15 16 18 20 21 20 21 23 22 19 6 3 2 5 3 2 2 3 3 2 3 1 2 1 1 1 2 1 1 3 2 3 5 14 14 18 22 23 24 21 21 18 18 17 18 19 23 20
18 18 17 18 18 14 16 15 18 20 20 21 23 17 3 1 1 2 6 5 1 2 2 3 2 2 2 1 2 2 2 3 2 3 3 4 3 7 12 10 12 14 13 18 20 22 21 20 23 23 21 21 19 16
17 18 17 17 17 14 16 14 17 19 18 18 3 1 1 1 7 3 2 1 2 3 2 2 1 2 3 2 1 1 2 2 2 3 3 4 6 14 15 13 13 14 17 17 18 20 16 15 19 21 19 18 14 7
17 17 17 18 17 15 15 14 16 14 7 3 3 2 2 6 1 0 2 2 2 2 2 2 3 2 2 3 3 3 2 2 2 1 2 3 4 1 8 13 14 16 18 20 20 21 20 19 18 14 10 8 9 10
17 17 17 17 17 15 12 14 16 2 1 4 4 5 2 2 2 3 2 1 3 2 2 2 2 2 1 1 2 3 2 2 3 3 2 3 2 7 13 17 19 18 20 22 21 21 20 20 16 10 9 9 6 6
19 17 17 17 17 14 13 15 10 11 9 2 3 3 2 2 3 3 3 3 2 2 2 1 1 1 1 3 3 2 3 3 1 2 3 3 6 11 14 15 16 17 18 19 17 17 17 11 9 12 10 7 9 8
23 18 16 16 17 15 8 8 10 7 2 2 2 4 4 3 4 3 2 2 2 1 1 2 2 2 2 2 2 3 2 1 2 3 3 4 11 13 12 11 13 16 16 15 12 6 10 12 9 10 12 10 11 12
23 20 15 13 4 6 11 12 13 1 2 3 3 4 5 2 3 2 1 2 2 1 1 1 2 2 2 3 2 1 1 3 3 3 5 8 13 10 11 11 12 12 11 11 11 11 10 9 11 11 11 12 11 10
21 19 5 7 6 13 13 9 2 4 2 3 5 3 1 0 3 1 2 2 0 2 2 1 2 2 3 2 3 4 2 1 4 7 8 10 12 10 11 10 10 10 10 9 9 10 12 13 14 13 13 13 14 13
21 4 5 6 10 15 14 3 2 4 4 4 3 1 2 2 4 2 1 1 1 2 2 1 2 3 1 2 1 5 3 5 8 9 8 10 9 10 10 9 8 9 10 9 9 10 10 12 13 15 17 14 15 14
8 8 14 7 7 4 1 2 2 3 5 4 2 3 2 2 2 2 1 1 1 1 1 1 2 1 1 2 1 3 4 7 7 8 8 8 8 7 7 7 7 7 8 9 10 11 11 13 13 10 14 13 14 13
11 12 12 9 6 2 1 2 2 3 4 2 1 1 1 1 2 3 1 1 1 2 2 2 3 2 2 2 4 7 7 6 8 9 7 7 6 6 6 6 5 7 7 8 9 8 8 11 9 8 9 9 9 7
21 20 13 10 6 2 2 3 1 3 2 2 1 2 1 1 4 2 4 4 2 2 3 3 2 2 3 3 4 6 7 8 7 7 5 4 4 5 6 5 5 5 5 7 8 8 7 8 7 7 7 8 9 8
6 3 3 2 2 3 2 2 3 3 1 2 1 2 2 2 2 2 3 3 3 2 2 2 1 2 4 4 4 6 7 7 7 5 8 3 3 3 3 4 4 4 5 5 5 6 7 6 6 7 7 7 7 7
3 3 2 2 2 1 2 3 2 1 1 1 2 2 2 2 2 2 2 4 2 2 2 1 2 3 4 6 7 7 8 10 7 6 8 7 3 2 2 3 3 4 4 4 4 5 6 6 6 7 7 7 8 7
6 4 2 4 2 1 5 2 3 4 2 2 2 3 2 2 2 2 3 2 1 1 2 2 4 3 3 5 5 8 9 10 6 7 7 6 4 1 1 2 2 3 3 3 4 4 5 8 7 8 8 7 8 8
6 3 3 4 5 4 1 2 2 1 1 2 2 3 2 2 2 2 2 0 1 2 2 4 4 2 3 5 5 7 8 7 6 6 8 8 6 5 5 1 2 3 2 3 4 5 5 6 7 7 7 8 8 7
5 4 4 5 2 2 2 1 1 2 2 1 3 1 1 1 2 1 2 1 0 1 2 2 3 4 3 2 3 5 8 7 6 7 8 8 7 5 6 4 7 7 6 2 3 4 4 4 5 6 6 7 9 9
4 4 6 5 2 4 4 3 4 3 3 2 1 1 1 2 2 2 2 3 2 1 0 1 1 1 2 2 2 4 6 6 5 6 7 8 7 7 7 7 4 5 8 6 3 5 6 5 6 8 8 8 9 9
4 4 2 3 1 4 2 2 2 2 2 4 3 2 2 2 3 2 1 2 2 2 1 1 2 3 2 2 2 3 4 4 4 5 4 6 8 7 7 7 8 6 7 7 5 4 7 8 7 7 7 7 8 8
3 3 5 1 3 2 3 2 2 2 2 2 3 2 5 5 3 2 2 2 5 5 5 4 4 4 4 3 3 5 3 4 1 1 1 3 6 8 10 7 7 14 7 6 7 5 6 7 8 8 8 8 6 5
2 1 3 3 2 2 1 2 2 1 1 2 3 2 2 1 1 2 2 4 4 5 5 4 2 2 3 4 5 6 6 5 5 6 6 5 5 6 9 8 8 9 8 8 12 9 5 8 8 9 9 8 7 6
2 2 3 2 3 1 0 1 1 0 2 2 3 3 2 2 2 1 3 5 4 3 3 2 2 1 2 2 3 5 5 5 5 4 3 4 4 6 6 7 8 8 8 8 9 9 10 4 7 5 7 6 6 6
2 2 3 3 2 1 1 1 1 1 2 3 3 3 2 1 1 1 1 1 4 4 4 3 2 1 2 2 2 2 3 3 3 4 3 2 2 4 5 6 6 6 7 8 8 8 8 6 2 7 10 10 10 8
2 2 3 3 2 1 2 2 2 2 3 2 2 2 1 2 1 1 1 3 3 3 2 3 3 2 3 1 1 0 1 2 1 2 4 3 4 4 5 5 5 5 6 7 7 8 10 10 8 8 7 8 9 9
2 2 3 3 2 1 2 3 4 2 3 2 2 1 0 2 3 2 1 0 1 2 4 4 2 3 4 4 3 2 1 1 1 3 4 4 4 4 3 4 5 6 7 7 7 8 10 12 11 11 11 11 10 10
Wind_Direction
288 297 294 293 291 292 282 287 292 292 295 296 294 297 294 293 292 294 276 252 247 267 256 243 237 234 254 264 256 290 239 219 190 190 188 172 215 206 222 216 197 172 172 205 223 227 242 236 230 219 225 243 258 250
290 297 295 298 295 294 280 286 292 293 295 298 296 295 298 296 298 289 280 263 255 248 262 252 235 247 239 247 267 229 257 210 178 179 190 160 176 182 212 230 203 210 205 191 192 214 237 235 199 209 229 260 262 235
302 299 295 293 293 294 283 286 292 297 302 299 298 294 295 299 293 287 280 285 256 239 248 214 234 238 236 227 244 250 222 198 212 230 155 183 221 164 202 228 222 230 213 225 223 235 242 251 220 220 246 258 266 271
303 299 306 296 295 292 288 289 299 299 299 296 296 292 293 296 293 290 283 274 208 243 255 272 139 225 211 232 245 227 249 158 162 148 192 185 206 196 224 236 218 218 175 224 243 249 255 264 255 252 248 261 272 267
303 304 307 299 298 293 289 298 304 304 298 301 300 295 296 297 300 300 266 228 189 244 257 274 271 211 228 264 245 198 199 180 174 182 204 205 201 201 194 236 240 203 223 212 238 249 245 260 272 260 246 250 263 267
305 298 304 301 300 297 289 298 308 299 303 301 296 295 298 304 305 24 291 211 202 207 267 299 300 236 179 354 297 133 185 177 205 199 191 231 276 222 228 248 251 222 228 232 245 249 256 264 272 266 266 270 274 268
313 311 305 300 299 302 296 303 306 308 304 296 299 297 300 305 283 187 279 296 166 106 207 281 280 251 185 195 241 194 172 225 248 198 213 212 218 212 245 257 256 239 237 244 245 256 260 261 261 265 266 269 276 275
314 311 308 305 296 303 308 311 311 307 302 303 301 301 301 293 240 239 252 253 175 221 217 258 266 291 175 227 260 159 195 184 222 240 252 228 249 225 256 247 251 249 249 255 256 250 252 263 266 265 268 272 271 268
315 309 306 307 303 304 307 312 312 307 304 306 310 307 316 206 228 241 287 254 216 261 237 223 245 281 175 237 219 207 203 232 187 218 231 172 220 232 244 272 263 264 257 259 259 256 261 258 261 264 262 262 256 249
316 312 308 307 310 301 308 311 311 309 321 321 325 314 272 233 319 333 353 233 217 206 232 245 186 254 193 201 231 236 202 233 235 232 141 228 250 262 275 292 298 287 277 271 269 269 265 262 258 261 257 248 232 238
318 314 307 312 310 305 314 318 314 325 347 10 1 316 309 309 267 151 262 238 189 244 207 235 226 248 182 226 243 209 208 218 241 231 233 250 259 278 320 313 305 297 288 281 267 263 259 255 262 261 238 178 165 166
314 316 307 309 310 301 313 317 311 335 251 244 302 281 265 258 227 243 216 225 227 256 199 207 224 215 250 227 252 209 244 201 254 149 241 259 264 327 330 319 314 311 301 287 269 256 250 248 244 215 175 159 146 135
313 306 305 305 307 302 310 306 312 319 308 280 196 239 225 261 258 229 228 187 237 207 198 197 277 240 208 220 259 232 227 235 131 235 249 253 323 331 325 326 320 321 323 311 270 255 249 231 166 148 134 128 120 113
317 310 310 302 305 303 308 325 327 327 291 250 236 268 199 218 241 227 180 220 256 226 216 198 245 214 196 221 227 236 240 238 263 245 258 328 332 324 321 327 330 332 339 343 352 297 162 143 126 125 126 134 121 122
311 311 300 309 307 315 320 315 305 257 261 243 237 235 220 243 259 276 279 293 248 285 184 195 237 210 228 259 243 303 297 248 229 351 314 321 319 316 327 337 335 340 349 358 11 44 64 89 103 103 103 103 99 97
305 313 261 241 276 313 309 304 281 186 225 228 236 244 214 313 296 298 246 246 7 283 221 274 296 242 234 231 222 222 235 51 0 327 319 317 322 331 334 340 342 350 358 7 26 57 73 79 82 80 79 85 88 88
304 228 245 247 300 310 302 270 221 220 212 217 241 180 165 226 262 223 266 300 317 251 235 192 218 230 332 258 294 16 32 321 318 311 310 322 332 340 336 343 359 6 18 18 40 53 71 83 81 73 65 59 70 75
286 267 269 271 303 299 250 208 239 245 238 227 205 217 200 214 179 237 295 348 296 230 250 265 320 289 31 309 356 355 316 312 301 314 316 328 333 342 357 2 15 20 31 29 38 47 58 71 79 84 89 89 83 79
275 292 259 259 270 281 262 255 198 255 233 214 207 192 199 193 69 51 6 296 215 37 31 34 63 57 30 16 327 322 323 322 313 313 308 326 339 1 10 15 37 42 38 46 61 67 67 69 79 84 86 89 94 90
292 288 266 264 230 172 255 255 225 253 246 225 148 172 171 135 118 94 40 29 46 56 55 55 76 34 349 328 323 312 311 314 314 313 316 342 351 14 26 16 35 52 69 67 63 57 75 73 59 66 81 99 103 102
251 230 279 150 151 197 257 250 243 233 229 211 163 147 114 94 74 58 45 3 58 38 91 70 35 329 339 340 335 327 322 325 316 301 304 307 344 4 29 35 37 46 54 54 69 69 65 75 89 88 85 78 84 89
233 166 115 165 179 196 265 228 246 253 207 179 139 113 109 95 90 72 81 55 64 42 28 357 337 330 343 355 346 349 332 333 338 330 351 342 326 347 21 33 45 53 48 64 80 89 97 98 99 99 101 103 98 100
182 136 187 202 149 165 257 166 217 198 184 183 137 115 108 91 89 98 74 76 109 357 325 327 330 330 360 360 3 2 358 355 1 1 349 335 312 80 67 47 52 84 74 54 80 95 98 112 104 109 116 114 114 115
139 169 193 207 198 235 289 228 225 148 51 133 126 119 95 121 98 60 98 173 285 331 24 1 3 41 38 26 21 9 357 354 6 13 7 0 2 353 338 347 52 61 70 116 110 113 113 115 121 125 124 123 119 123
147 230 163 229 248 130 168 157 146 116 125 153 106 132 148 75 87 79 151 215 313 8 354 342 46 46 70 37 21 8 1 8 16 21 12 12 359 359 4 50 64 41 11 93 131 129 119 123 127 128 125 130 136 135
188 227 170 198 232 164 186 156 176 157 124 118 105 65 61 101 93 183 211 184 186 183 258 31 40 70 56 24 354 3 352 344 13 41 23 16 17 21 19 15 15 27 7 356 340 169 155 151 149 150 150 147 141 142
178 203 190 205 149 123 91 72 117 110 130 155 160 127 98 114 208 229 184 192 139 173 149 124 82 74 62 5 324 332 331 343 39 72 46 34 31 23 23 15 5 334 328 336 336 272 183 176 174 164 156 156 157 153
177 151 154 161 83 45 123 106 140 158 161 137 115 119 150 174 182 185 177 147 131 124 106 85 71 70 65 45 10 358 356 345 348 38 31 35 25 25 9 356 350 344 342 338 335 300 198 185 177 172 170 168 163 168
92 66 99 81 86 57 73 133 152 104 63 110 113 148 169 129 139 136 140 151 137 127 121 119 88 49 56 51 42 34 22 23 61 66 50 23 1 0 353 346 345 344 346 345 343 341 265 189 182 180 173 171 166 162
127 97 97 82 91 96 347 1 109 115 31 76 101 105 83 57 42 147 136 143 151 155 145 129 109 138 90 61 40 35 33 31 42 71 71 40 350 325 330 341 343 341 341 348 353 348 356 165 143 131 140 146 154 157
99 97 87 69 85 35 9 71 124 105 44 60 17 92 106 52 65 49 134 118 123 129 131 129 110 110 113 103 109 93 59 34 45 61 62 37 340 344 349 341 340 338 345 356 3 9 11 26 30 166 157 158 158 161
56 80 121 113 115 54 57 52 41 62 16 57 43 44 55 64 127 268 162 127 134 145 157 149 139 160 184 147 115 86 63 112 94 40 19 10 6 357 351 352 352 360 10 12 12 16 20 31 42 53 80 121 140 150
91 72 76 103 106 120 40 77 32 59 43 57 39 46 183 158 177 211 100 299 198 176 170 175 138 126 141 145 129 128 143 92 30 16 10 5 358 356 5 6 8 16 23 27 24 21 31 36 40 46 52 61 69 75